Time,TemperatureF,DewpointF,PressureIn,WindDirection,WindDirectionDegrees,WindSpeedMPH,WindSpeedGustMPH,Humidity,HourlyPrecipIn,Conditions,Clouds,dailyrainin,SoftwareType,DateUTC
2013-03-05 00:02:00,22.2,16.0,30.13,SE,124,0.0,0.0,77,0.00,,,0.00,weatherlink.com 1.10,2013-03-05 05:02:00,
2013-03-05 00:17:00,22.2,16.0,30.13,SE,124,0.0,0.0,76,0.00,,,0.00,weatherlink.com 1.10,2013-03-05 05:17:00,
2013-03-05 00:32:00,21.9,15.0,30.13,SE,124,0.0,0.0,76,0.00,,,0.00,weatherlink.com 1.10,2013-03-05 05:32:00,
2013-03-05 00:47:00,21.4,16.0,30.12,SE,124,0.0,0.0,78,0.00,,,0.00,weatherlink.com 1.10,2013-03-05 05:47:00,
2013-03-05 01:02:00,21.1,16.0,30.12,SE,124,0.0,0.0,79,0.00,,,0.00,weatherlink.com 1.10,2013-03-05 06:02:00,
2013-03-05 01:17:00,20.7,15.0,30.12,SE,124,0.0,0.0,79,0.00,,,0.00,weatherlink.com 1.10,2013-03-05 06:17:00,
2013-03-05 01:32:00,20.5,15.0,30.12,SE,124,0.0,0.0,80,0.00,,,0.00,weatherlink.com 1.10,2013-03-05 06:32:00,
2013-03-05 01:47:00,20.0,15.0,30.11,SE,124,0.0,0.0,80,0.00,,,0.00,weatherlink.com 1.10,2013-03-05 06:47:00,
2013-03-05 02:02:00,19.9,15.0,30.11,SE,124,0.0,0.0,80,0.00,,,0.00,weatherlink.com 1.10,2013-03-05 07:02:00,
2013-03-05 02:17:00,19.8,15.0,30.11,SE,124,0.0,0.0,81,0.00,,,0.00,weatherlink.com 1.10,2013-03-05 07:17:00,
2013-03-05 02:32:00,19.8,15.0,30.11,SE,141,0.0,0.0,81,0.00,,,0.00,weatherlink.com 1.10,2013-03-05 07:32:00,
2013-03-05 02:47:00,20.1,15.0,30.10,SSE,155,0.0,0.0,80,0.00,,,0.00,weatherlink.com 1.10,2013-03-05 07:47:00,
2013-03-05 03:02:00,20.2,15.0,30.09,SE,135,1.0,1.0,80,0.00,,,0.00,weatherlink.com 1.10,2013-03-05 08:02:00,
2013-03-05 03:17:00,20.2,15.0,30.09,SSW,197,0.0,0.0,80,0.00,,,0.00,weatherlink.com 1.10,2013-03-05 08:17:00,
2013-03-05 03:32:00,20.1,15.0,30.08,SSE,155,0.0,2.0,79,0.00,,,0.00,weatherlink.com 1.10,2013-03-05 08:32:00,
2013-03-05 03:47:00,20.0,15.0,30.08,SSE,162,0.0,1.0,79,0.00,,,0.00,weatherlink.com 1.10,2013-03-05 08:47:00,
2013-03-05 04:02:00,19.9,15.0,30.07,SSE,160,0.0,0.0,80,0.00,,,0.00,weatherlink.com 1.10,2013-03-05 09:02:00,
2013-03-05 04:17:00,19.7,15.0,30.06,SSE,156,0.0,0.0,80,0.00,,,0.00,weatherlink.com 1.10,2013-03-05 09:17:00,
2013-03-05 04:32:00,19.7,15.0,30.07,South,181,0.0,1.0,80,0.00,,,0.00,weatherlink.com 1.10,2013-03-05 09:32:00,
2013-03-05 04:47:00,19.6,14.0,30.06,SE,143,0.0,0.0,80,0.00,,,0.00,weatherlink.com 1.10,2013-03-05 09:47:00,
2013-03-05 05:03:00,19.4,15.0,30.06,SE,146,0.0,0.0,81,0.00,,,0.00,weatherlink.com 1.10,2013-03-05 10:03:00,
2013-03-05 05:18:00,19.4,15.0,30.06,South,170,0.0,1.0,81,0.00,,,0.00,weatherlink.com 1.10,2013-03-05 10:18:00,
2013-03-05 05:33:00,19.7,15.0,30.06,WSW,246,1.0,3.0,80,0.00,,,0.00,weatherlink.com 1.10,2013-03-05 10:33:00,
2013-03-05 05:48:00,20.0,15.0,30.06,South,170,0.0,3.0,80,0.00,,,0.00,weatherlink.com 1.10,2013-03-05 10:48:00,
2013-03-05 06:03:00,20.2,15.0,30.06,SE,143,1.0,2.0,79,0.00,,,0.00,weatherlink.com 1.10,2013-03-05 11:03:00,
2013-03-05 06:18:00,20.2,15.0,30.06,SE,130,1.0,3.0,79,0.00,,,0.00,weatherlink.com 1.10,2013-03-05 11:18:00,
2013-03-05 06:33:00,20.1,15.0,30.06,SW,222,0.0,3.0,79,0.00,,,0.00,weatherlink.com 1.10,2013-03-05 11:33:00,
2013-03-05 06:48:00,20.0,15.0,30.06,WSW,237,1.0,2.0,80,0.00,,,0.00,weatherlink.com 1.10,2013-03-05 11:48:00,
2013-03-05 07:03:00,20.1,15.0,30.05,SSE,167,1.0,3.0,80,0.00,,,0.00,weatherlink.com 1.10,2013-03-05 12:03:00,
2013-03-05 07:18:00,20.1,15.0,30.05,SSE,155,0.0,3.0,81,0.00,,,0.00,weatherlink.com 1.10,2013-03-05 12:18:00,
2013-03-05 07:33:00,20.2,15.0,30.04,SSW,200,1.0,3.0,81,0.00,,,0.00,weatherlink.com 1.10,2013-03-05 12:33:00,
2013-03-05 07:48:00,20.5,16.0,30.05,ESE,119,2.0,3.0,82,0.00,,,0.00,weatherlink.com 1.10,2013-03-05 12:48:00,
2013-03-05 08:03:00,21.2,16.0,30.05,SE,135,0.0,4.0,81,0.00,,,0.00,weatherlink.com 1.10,2013-03-05 13:03:00,
2013-03-05 08:18:00,21.7,17.0,30.04,NNE,19,2.0,5.0,81,0.00,,,0.00,weatherlink.com 1.10,2013-03-05 13:18:00,
2013-03-05 08:33:00,21.9,17.0,30.05,SE,141,2.0,5.0,81,0.00,,,0.00,weatherlink.com 1.10,2013-03-05 13:33:00,
2013-03-05 08:48:00,22.1,17.0,30.05,SSE,163,1.0,4.0,82,0.00,,,0.00,weatherlink.com 1.10,2013-03-05 13:48:00,
2013-03-05 09:03:00,22.9,18.0,30.04,WNW,303,1.0,3.0,81,0.00,,,0.00,weatherlink.com 1.10,2013-03-05 14:03:00,
2013-03-05 09:18:00,23.9,19.0,30.03,NW,316,0.0,4.0,80,0.00,,,0.00,weatherlink.com 1.10,2013-03-05 14:18:00,
2013-03-05 09:33:00,24.1,19.0,30.03,SSE,152,2.0,5.0,79,0.00,,,0.00,weatherlink.com 1.10,2013-03-05 14:33:00,
2013-03-05 09:48:00,24.4,19.0,30.03,NNW,343,1.0,6.0,79,0.00,,,0.00,weatherlink.com 1.10,2013-03-05 14:48:00,
2013-03-05 10:03:00,25.7,20.0,30.03,East,98,2.0,8.0,78,0.00,,,0.00,weatherlink.com 1.10,2013-03-05 15:03:00,
2013-03-05 10:18:00,27.0,20.0,30.02,SSW,193,2.0,4.0,76,0.00,,,0.00,weatherlink.com 1.10,2013-03-05 15:18:00,
2013-03-05 10:33:00,28.1,21.0,30.01,SW,228,1.0,5.0,74,0.00,,,0.00,weatherlink.com 1.10,2013-03-05 15:33:00,
2013-03-05 10:48:00,28.4,21.0,30.01,SSE,162,1.0,4.0,74,0.00,,,0.00,weatherlink.com 1.10,2013-03-05 15:48:00,
2013-03-05 11:03:00,29.0,21.0,29.99,SSW,194,1.0,5.0,73,0.00,,,0.00,weatherlink.com 1.10,2013-03-05 16:03:00,
2013-03-05 11:18:00,29.3,21.0,29.98,SSE,158,2.0,6.0,72,0.00,,,0.00,weatherlink.com 1.10,2013-03-05 16:18:00,
2013-03-05 11:33:00,29.4,21.0,29.98,SE,142,3.0,4.0,71,0.00,,,0.00,weatherlink.com 1.10,2013-03-05 16:33:00,
2013-03-05 11:48:00,30.1,21.0,29.98,WSW,248,0.0,3.0,70,0.00,,,0.00,weatherlink.com 1.10,2013-03-05 16:48:00,
2013-03-05 12:04:00,31.2,22.0,29.97,NW,311,2.0,6.0,69,0.00,,,0.00,weatherlink.com 1.10,2013-03-05 17:04:00,
2013-03-05 12:19:00,32.0,23.0,29.97,NNW,329,1.0,4.0,69,0.00,,,0.00,weatherlink.com 1.10,2013-03-05 17:19:00,
2013-03-05 12:34:00,32.8,24.0,29.96,SE,138,6.0,6.0,69,0.00,,,0.00,weatherlink.com 1.10,2013-03-05 17:34:00,
2013-03-05 12:49:00,33.7,25.0,29.96,South,187,1.0,7.0,69,0.00,,,0.00,weatherlink.com 1.10,2013-03-05 17:49:00,
2013-03-05 13:04:00,34.0,24.0,29.95,WSW,257,1.0,7.0,67,0.00,,,0.00,weatherlink.com 1.10,2013-03-05 18:04:00,
2013-03-05 13:19:00,33.7,24.0,29.94,NNW,348,3.0,4.0,68,0.00,,,0.00,weatherlink.com 1.10,2013-03-05 18:19:00,
2013-03-05 13:34:00,33.4,24.0,29.93,SE,125,4.0,6.0,68,0.00,,,0.00,weatherlink.com 1.10,2013-03-05 18:34:00,
2013-03-05 13:49:00,33.6,23.0,29.92,NW,323,1.0,5.0,66,0.00,,,0.00,weatherlink.com 1.10,2013-03-05 18:49:00,
2013-03-05 14:04:00,34.0,24.0,29.91,NNW,343,1.0,5.0,66,0.00,,,0.00,weatherlink.com 1.10,2013-03-05 19:04:00,
2013-03-05 14:19:00,34.5,24.0,29.90,SE,134,2.0,4.0,65,0.00,,,0.00,weatherlink.com 1.10,2013-03-05 19:19:00,
2013-03-05 14:34:00,34.0,23.0,29.89,East,94,2.0,6.0,65,0.00,,,0.00,weatherlink.com 1.10,2013-03-05 19:34:00,
2013-03-05 14:49:00,34.0,23.0,29.88,SSE,163,2.0,6.0,65,0.00,,,0.00,weatherlink.com 1.10,2013-03-05 19:49:00,
2013-03-05 15:04:00,34.1,24.0,29.88,NNW,333,1.0,5.0,67,0.00,,,0.00,weatherlink.com 1.10,2013-03-05 20:04:00,
2013-03-05 15:19:00,34.4,24.0,29.87,NW,306,1.0,4.0,67,0.00,,,0.00,weatherlink.com 1.10,2013-03-05 20:19:00,
2013-03-05 15:34:00,34.4,24.0,29.86,East,88,2.0,5.0,67,0.00,,,0.00,weatherlink.com 1.10,2013-03-05 20:34:00,
2013-03-05 15:49:00,34.0,25.0,29.86,NW,321,2.0,7.0,69,0.00,,,0.00,weatherlink.com 1.10,2013-03-05 20:49:00,
2013-03-05 16:04:00,33.9,25.0,29.86,North,3,0.0,3.0,70,0.00,,,0.00,weatherlink.com 1.10,2013-03-05 21:04:00,
2013-03-05 16:19:00,33.7,25.0,29.86,NNE,18,2.0,4.0,70,0.00,,,0.00,weatherlink.com 1.10,2013-03-05 21:19:00,
2013-03-05 16:34:00,33.2,25.0,29.85,NW,319,0.0,5.0,71,0.00,,,0.00,weatherlink.com 1.10,2013-03-05 21:34:00,
2013-03-05 16:49:00,32.6,25.0,29.86,SSE,152,0.0,4.0,73,0.00,,,0.00,weatherlink.com 1.10,2013-03-05 21:49:00,
2013-03-05 17:04:00,32.3,25.0,29.86,North,11,0.0,6.0,74,0.00,,,0.00,weatherlink.com 1.10,2013-03-05 22:04:00,
2013-03-05 17:19:00,32.3,25.0,29.86,NW,316,2.0,4.0,74,0.00,,,0.00,weatherlink.com 1.10,2013-03-05 22:19:00,
2013-03-05 17:34:00,32.1,25.0,29.86,ESE,104,1.0,5.0,74,0.00,,,0.00,weatherlink.com 1.10,2013-03-05 22:34:00,
2013-03-05 17:49:00,31.9,25.0,29.87,SSE,160,1.0,4.0,75,0.00,,,0.00,weatherlink.com 1.10,2013-03-05 22:49:00,
2013-03-05 18:04:00,31.6,25.0,29.88,WNW,301,1.0,2.0,75,0.00,,,0.00,weatherlink.com 1.10,2013-03-05 23:04:00,
2013-03-05 18:19:00,31.2,25.0,29.89,NNW,341,0.0,3.0,77,0.00,,,0.00,weatherlink.com 1.10,2013-03-05 23:19:00,
2013-03-05 18:34:00,30.8,25.0,29.89,ESE,108,1.0,4.0,78,0.00,,,0.00,weatherlink.com 1.10,2013-03-05 23:34:00,
2013-03-05 18:49:00,30.5,24.0,29.91,NW,319,4.0,5.0,78,0.00,,,0.00,weatherlink.com 1.10,2013-03-05 23:49:00,
2013-03-05 19:04:00,30.2,24.0,29.91,NW,310,1.0,6.0,79,0.00,,,0.00,weatherlink.com 1.10,2013-03-06 00:04:00,
2013-03-05 19:19:00,29.8,24.0,29.91,NW,312,1.0,5.0,80,0.00,,,0.00,weatherlink.com 1.10,2013-03-06 00:19:00,
2013-03-05 19:34:00,29.3,24.0,29.92,NNW,335,1.0,6.0,81,0.00,,,0.00,weatherlink.com 1.10,2013-03-06 00:34:00,
2013-03-05 19:49:00,28.9,24.0,29.92,South,188,0.0,3.0,82,0.00,,,0.00,weatherlink.com 1.10,2013-03-06 00:49:00,
2013-03-05 20:04:00,28.5,24.0,29.91,NNE,14,1.0,6.0,82,0.00,,,0.00,weatherlink.com 1.10,2013-03-06 01:04:00,
2013-03-05 20:19:00,28.3,24.0,29.92,WNW,303,0.0,3.0,83,0.00,,,0.00,weatherlink.com 1.10,2013-03-06 01:19:00,
2013-03-05 20:34:00,28.2,24.0,29.91,NW,323,2.0,4.0,83,0.00,,,0.00,weatherlink.com 1.10,2013-03-06 01:34:00,
2013-03-05 20:49:00,28.1,24.0,29.92,SSW,205,1.0,3.0,83,0.00,,,0.00,weatherlink.com 1.10,2013-03-06 01:49:00,
2013-03-05 21:04:00,27.9,24.0,29.92,NE,51,0.0,3.0,84,0.00,,,0.00,weatherlink.com 1.10,2013-03-06 02:04:00,
2013-03-05 21:19:00,27.8,24.0,29.92,NNW,331,1.0,4.0,85,0.00,,,0.00,weatherlink.com 1.10,2013-03-06 02:19:00,
2013-03-05 21:34:00,27.7,24.0,29.92,NE,37,3.0,6.0,86,0.00,,,0.00,weatherlink.com 1.10,2013-03-06 02:34:00,
2013-03-05 21:49:00,27.6,24.0,29.93,NW,321,1.0,5.0,86,0.00,,,0.00,weatherlink.com 1.10,2013-03-06 02:49:00,
2013-03-05 22:04:00,27.5,24.0,29.93,SW,235,1.0,5.0,86,0.00,,,0.00,weatherlink.com 1.10,2013-03-06 03:04:00,
2013-03-05 22:19:00,27.4,24.0,29.93,NNW,330,0.0,5.0,87,0.00,,,0.00,weatherlink.com 1.10,2013-03-06 03:19:00,
2013-03-05 22:34:00,27.4,24.0,29.94,NE,41,1.0,6.0,87,0.00,,,0.00,weatherlink.com 1.10,2013-03-06 03:34:00,
2013-03-05 22:49:00,27.4,24.0,29.94,NW,319,0.0,3.0,87,0.00,,,0.00,weatherlink.com 1.10,2013-03-06 03:49:00,
2013-03-05 23:04:00,27.3,24.0,29.95,SW,221,0.0,5.0,87,0.00,,,0.00,weatherlink.com 1.10,2013-03-06 04:04:00,
2013-03-05 23:19:00,27.2,24.0,29.95,NW,323,0.0,3.0,88,0.00,,,0.00,weatherlink.com 1.10,2013-03-06 04:19:00,
2013-03-05 23:35:00,27.2,24.0,29.95,NNW,328,1.0,4.0,88,0.00,,,0.00,weatherlink.com 1.10,2013-03-06 04:35:00,
2013-03-05 23:50:00,27.3,24.0,29.95,NNW,328,0.0,3.0,88,0.00,,,0.00,weatherlink.com 1.10,2013-03-06 04:50:00,